Location: Unspecified
(0.0000°N, 0.0000°E)
Time: 18:21:23
(UTC+00:00)

Vanguard 3 - Pass Details

Date: 07 February 2023
Orbit: 509 x 3249 km, 33.3° (Epoch: 20 March)

Event Time Altitude Azimuth Distance (km) Brightness Sun altitude
Rises 23:04:13 0° 320° (NW) 5,919 - -67.0°
Reaches altitude 10° 23:08:03 10° 327° (NNW) 5,233 - -67.7°
Maximum altitude 23:23:53 45° 35° (NE) 3,918 - -70.4°
Drops below altitude 10° 23:42:04 10° 101° (E) 6,011 - -72.9°
Exits shadow 23:44:38 - 105° (ESE) 6,454 11.7 -73.2°
Sets 23:46:46 0° 107° (ESE) 6,836 11.9 -73.4°
